• In Belarus
  • List of Countries
  • For 7 days
  • Water Temperature
  • Satellite Maps
  • Weather Map
  • Weather Widgets
  • user-avatar
    Login

    Hourly Weather Hobart

    Today, 18 January, Friday

    Time Temperature Precipitation Wind Pressure Humidity
    00:00 +16°C° 0 mm 1 mps 741 mmHg 95%
    01:00 +16°C° 0 mm 1 mps 741 mmHg 94%
    02:00 +15°C° 0 mm 0 mps 741 mmHg 95%
    03:00 +14°C° 0 mm 0 mps 741 mmHg 95%
    04:00 +14°C° 0 mm 0 mps 740 mmHg 96%
    05:00 +15°C° 0 mm 0 mps 741 mmHg 90%
    06:00 +16°C° 0 mm 0 mps 741 mmHg 85%
    07:00 +20°C° 0 mm 1 mps 741 mmHg 79%
    08:00 +22°C° 0 mm 1 mps 741 mmHg 67%
    09:00 +25°C° 0 mm 1 mps 742 mmHg 54%
    10:00 +27°C° 0 mm 1 mps 742 mmHg 46%
    11:00 +28°C° 0 mm 1 mps 741 mmHg 42%
    12:00 +29°C° 0 mm 2 mps 741 mmHg 39%
    13:00 +29°C° 0 mm 3 mps 741 mmHg 35%
    14:00 +28°C° 0.1 mm 3 mps 740 mmHg 40%
    15:00 +27°C° 0.1 mm 3 mps 740 mmHg 45%
    16:00 +22°C° 0 mm 3 mps 739 mmHg 59%
    17:00 +22°C° 0.1 mm 3 mps 739 mmHg 60%
    18:00 +21°C° 0.1 mm 2 mps 739 mmHg 60%
    19:00 +20°C° 0.1 mm 2 mps 739 mmHg 60%
    20:00 +18°C° 0.4 mm 3 mps 740 mmHg 65%
    21:00 +16°C° 0.4 mm 5 mps 741 mmHg 69%
    22:00 +14°C° 0.4 mm 6 mps 741 mmHg 74%
    23:00 +14°C° 0 mm 6 mps 742 mmHg 74%

    Tomorrow, 19 January, Saturday

    Time Temperature Precipitation Wind Pressure Humidity
    00:00 +13°C° 0 mm 6 mps 743 mmHg 74%
    01:00 +12°C° 0 mm 5 mps 743 mmHg 74%
    02:00 +12°C° 0 mm 5 mps 744 mmHg 75%
    03:00 +11°C° 0 mm 4 mps 744 mmHg 76%
    04:00 +11°C° 0 mm 4 mps 745 mmHg 76%
    05:00 +12°C° 0 mm 4 mps 746 mmHg 71%
    06:00 +13°C° 0 mm 4 mps 746 mmHg 66%
    07:00 +14°C° 0 mm 4 mps 747 mmHg 61%
    08:00 +15°C° 0 mm 4 mps 747 mmHg 55%
    09:00 +18°C° 0 mm 4 mps 748 mmHg 50%
    10:00 +19°C° 0 mm 4 mps 748 mmHg 44%
    11:00 +20°C° 0 mm 4 mps 748 mmHg 43%
    12:00 +20°C° 0 mm 5 mps 748 mmHg 43%
    13:00 +21°C° 0 mm 5 mps 748 mmHg 42%
    14:00 +21°C° 0 mm 5 mps 748 mmHg 42%
    15:00 +22°C° 0 mm 4 mps 748 mmHg 41%
    16:00 +22°C° 0 mm 4 mps 748 mmHg 41%
    17:00 +21°C° 0 mm 4 mps 748 mmHg 46%
    18:00 +20°C° 0 mm 4 mps 748 mmHg 51%
    19:00 +19°C° 0 mm 4 mps 748 mmHg 57%
    20:00 +18°C° 0 mm 3 mps 748 mmHg 64%
    21:00 +16°C° 0 mm 3 mps 749 mmHg 70%
    22:00 +15°C° 0 mm 2 mps 749 mmHg 77%
    23:00 +15°C° 0 mm 2 mps 749 mmHg 78%

    Day after tomorrow, 20 January, Sunday

    Time Temperature Precipitation Wind Pressure Humidity
    00:00 +15°C° 0 mm 2 mps 749 mmHg 79%
    01:00 +15°C° 0 mm 2 mps 748 mmHg 80%
    02:00 +15°C° 0 mm 2 mps 748 mmHg 81%
    03:00 +15°C° 0 mm 2 mps 748 mmHg 81%
    04:00 +15°C° 0 mm 2 mps 748 mmHg 82%
    05:00 +16°C° 0 mm 2 mps 748 mmHg 76%
    06:00 +17°C° 0 mm 2 mps 749 mmHg 71%
    07:00 +19°C° 0 mm 2 mps 749 mmHg 66%
    08:00 +20°C° 0 mm 2 mps 749 mmHg 61%
    09:00 +21°C° 0 mm 3 mps 750 mmHg 56%
    10:00 +22°C° 0 mm 3 mps 750 mmHg 51%
    11:00 +24°C° 0 mm 3 mps 750 mmHg 48%
    12:00 +25°C° 0 mm 3 mps 750 mmHg 45%
    13:00 +26°C° 0 mm 3 mps 750 mmHg 41%
    14:00 +27°C° 0 mm 3 mps 750 mmHg 41%
    15:00 +27°C° 0 mm 3 mps 750 mmHg 41%
    16:00 +27°C° 0 mm 3 mps 749 mmHg 41%
    17:00 +26°C° 0 mm 2 mps 750 mmHg 46%
    18:00 +24°C° 0 mm 1 mps 750 mmHg 52%
    19:00 +23°C° 0 mm 1 mps 750 mmHg 58%
    20:00 +21°C° 0 mm 1 mps 750 mmHg 66%
    21:00 +19°C° 0 mm 1 mps 751 mmHg 75%
    22:00 +16°C° 0 mm 1 mps 751 mmHg 84%
    23:00 +15°C° 0 mm 1 mps 750 mmHg 87%

    21 January, Monday

    Time Temperature Precipitation Wind Pressure Humidity
    00:00 +15°C° 0 mm 1 mps 750 mmHg 90%
    01:00 +14°C° 0 mm 1 mps 750 mmHg 93%
    02:00 +14°C° 0 mm 1 mps 750 mmHg 94%
    03:00 +14°C° 0 mm 1 mps 749 mmHg 95%
    04:00 +13°C° 0 mm 1 mps 749 mmHg 96%
    05:00 +15°C° 0 mm 1 mps 749 mmHg 89%
    06:00 +16°C° 0 mm 1 mps 749 mmHg 82%
    07:00 +19°C° 0 mm 1 mps 750 mmHg 76%
    08:00 +22°C° 0 mm 1 mps 749 mmHg 64%
    09:00 +25°C° 0 mm 1 mps 749 mmHg 53%
    10:00 +27°C° 0 mm 1 mps 749 mmHg 42%
    11:00 +29°C° 0 mm 1 mps 749 mmHg 36%
    12:00 +31°C° 0 mm 2 mps 748 mmHg 31%
    13:00 +32°C° 0 mm 2 mps 748 mmHg 26%
    14:00 +33°C° 0 mm 3 mps 747 mmHg 27%
    15:00 +31°C° 0 mm 3 mps 747 mmHg 29%
    16:00 +31°C° 0 mm 3 mps 747 mmHg 31%
    17:00 +28°C° 0 mm 3 mps 747 mmHg 39%
    18:00 +26°C° 0 mm 2 mps 747 mmHg 48%
    19:00 +24°C° 0 mm 2 mps 747 mmHg 56%
    20:00 +22°C° 0 mm 1 mps 747 mmHg 65%
    21:00 +19°C° 0 mm 1 mps 747 mmHg 73%
    22:00 +16°C° 0 mm 1 mps 747 mmHg 82%
    23:00 +15°C° 0 mm 1 mps 747 mmHg 80%

    22 January, Tuesday

    Time Temperature Precipitation Wind Pressure Humidity
    00:00 +15°C° 0 mm 1 mps 746 mmHg 78%
    01:00 +14°C° 0 mm 1 mps 746 mmHg 76%
    02:00 +14°C° 0 mm 2 mps 746 mmHg 75%
    03:00 +13°C° 0 mm 2 mps 746 mmHg 73%
    04:00 +13°C° 0 mm 2 mps 745 mmHg 72%
    05:00 +14°C° 0 mm 2 mps 745 mmHg 65%
    06:00 +16°C° 0 mm 2 mps 745 mmHg 58%
    07:00 +17°C° 0 mm 2 mps 745 mmHg 51%
    08:00 +20°C° 0 mm 2 mps 745 mmHg 41%
    09:00 +25°C° 0 mm 2 mps 745 mmHg 31%
    10:00 +28°C° 0 mm 3 mps 745 mmHg 21%
    11:00 +29°C° 0 mm 3 mps 744 mmHg 20%
    12:00 +31°C° 0 mm 3 mps 744 mmHg 18%
    13:00 +33°C° 0 mm 4 mps 743 mmHg 17%
    14:00 +33°C° 0 mm 4 mps 743 mmHg 18%
    15:00 +32°C° 0 mm 4 mps 743 mmHg 19%
    16:00 +32°C° 0 mm 4 mps 742 mmHg 20%
    17:00 +29°C° 0 mm 3 mps 742 mmHg 24%
    18:00 +26°C° 0 mm 3 mps 742 mmHg 28%
    19:00 +24°C° 0 mm 2 mps 742 mmHg 32%
    20:00 +21°C° 0 mm 2 mps 742 mmHg 44%
    21:00 +19°C° 0 mm 2 mps 743 mmHg 57%
    22:00 +17°C° 0 mm 2 mps 743 mmHg 69%
    23:00 +16°C° 0.3 mm 3 mps 743 mmHg 75%

    23 January, Wednesday

    Time Temperature Precipitation Wind Pressure Humidity
    00:00 +14°C° 0.3 mm 4 mps 743 mmHg 81%
    01:00 +13°C° 0.3 mm 5 mps 743 mmHg 87%
    02:00 +12°C° 0.1 mm 5 mps 744 mmHg 86%
    03:00 +10°C° 0.1 mm 6 mps 745 mmHg 85%
    04:00 +8°C° 0.1 mm 6 mps 745 mmHg 84%
    05:00 +9°C° 0 mm 6 mps 746 mmHg 77%
    06:00 +9°C° 0 mm 6 mps 747 mmHg 71%
    07:00 +9°C° 0 mm 6 mps 748 mmHg 65%
    08:00 +11°C° 0 mm 6 mps 749 mmHg 57%
    09:00 +13°C° 0 mm 6 mps 749 mmHg 49%
    10:00 +15°C° 0 mm 5 mps 750 mmHg 40%
    11:00 +16°C° 0 mm 5 mps 750 mmHg 39%
    12:00 +16°C° 0 mm 5 mps 750 mmHg 37%
    13:00 +17°C° 0 mm 5 mps 750 mmHg 36%
    14:00 +17°C° 0 mm 5 mps 750 mmHg 37%
    15:00 +18°C° 0 mm 4 mps 751 mmHg 38%
    16:00 +18°C° 0 mm 4 mps 751 mmHg 39%
    17:00 +17°C° 0 mm 4 mps 751 mmHg 44%
    18:00 +14°C° 0 mm 4 mps 751 mmHg 50%
    19:00 +13°C° 0 mm 4 mps 752 mmHg 55%
    20:00 +11°C° 0 mm 3 mps 752 mmHg 63%
    21:00 +10°C° 0 mm 2 mps 753 mmHg 71%
    22:00 +9°C° 0 mm 1 mps 753 mmHg 79%
    23:00 +9°C° 0 mm 1 mps 753 mmHg 82%
    Show more